Location: Binningen
(47.7924°N, 8.7261°E)
Time: 18:50:44
(UTC+00:00)

USA 307 - Pass Details

Date: 17 May 2021
Orbit: 566 x 577 km, 54.0° (Epoch: 10 May)

Event Time Altitude Azimuth Distance (km) Brightness Sun altitude
Rises 19:38:10 0° 297° (WNW) 2,775 8.5 -6.2°
Reaches altitude 10° 19:40:31 10° 290° (WNW) 1,876 6.9 -6.5°
Maximum altitude 19:44:29 38° 222° (SW) 881 3.9 -7.0°
Drops below altitude 10° 19:48:26 10° 154° (SSE) 1,872 5.0 -7.5°
Enters shadow 19:48:52 - 152° (SSE) 2,036 5.1 -7.6°
